DW9924 Weather Reports


Display with metric or nautical units.
time (UTC)temp
F
wind
direction
speed
MPH
gust
MPH
rain 1hr
in
rain 24hr
in
rain mn
in
humidity
%
barometer
mb
20260831233409 75 38 2.0 3.0 0.00 0.00 0.00 77 1016.6
20260831231908 76 59 3.0 7.0 0.00 0.00 0.00 78 1016.7
20260831231406 76 16 0.0 2.0 0.00 0.00 0.00 78 1016.7
20260831230909 76 35 0.0 3.0 0.00 0.00 0.00 78 1016.7
20260831230406 76 17 1.0 5.0 0.00 0.00 0.00 78 1016.7
20260831224407 76 13 1.0 3.0 0.00 0.00 0.00 79 1016.7
20260831221407 76 63 1.0 3.0 0.00 0.00 0.00 79 1016.7
20260831220407 76 19 1.0 3.0 0.00 0.00 0.00 80 1016.5
20260831214907 76 70 1.0 2.0 0.00 0.00 0.00 80 1016.5
20260831214409 76 96 1.0 2.0 0.00 0.00 0.00 80 1016.5
20260831213406 76 142 0.0 3.0 0.00 0.00 0.00 81 1016.5
20260831204905 77 91 1.0 3.0 0.00 0.00 0.00 81 1016.3
20260831204406 77 76 1.0 2.0 0.00 0.00 0.00 81 1016.3
20260831203906 77 140 0.0 0.0 0.00 0.00 0.00 81 1016.2
20260831203406 77 140 0.0 3.0 0.00 0.00 0.00 80 1016.1
20260831201917 77 144 0.0 2.0 0.00 0.00 0.00 80 1015.9
20260831201406 77 144 1.0 3.0 0.00 0.00 0.00 80 1015.9
20260831200905 77 135 1.0 3.0 0.00 0.00 0.00 80 1015.8
20260831200406 77 130 1.0 6.0 0.00 0.00 0.00 80 1015.8
20260831194906 77 180 2.0 5.0 0.00 0.00 0.00 80 1015.8
20260831194405 77 154 1.0 3.0 0.00 0.00 0.00 80 1015.8
20260831193905 77 115 1.0 3.0 0.00 0.00 0.00 80 1015.7
20260831191907 77 87 1.0 2.0 0.00 0.00 0.00 80 1015.7
20260831190917 77 92 1.0 3.0 0.00 0.00 0.00 79 1015.7
20260831190406 77 118 1.0 5.0 0.00 0.00 0.00 79 1015.5
20260831184905 77 124 1.0 3.0 0.00 0.00 0.00 79 1015.5
20260831184405 77 129 1.0 2.0 0.00 0.00 0.00 79 1015.4
20260831183405 78 147 2.0 6.0 0.00 0.00 0.00 78 1015.3
20260831181405 78 125 1.0 6.0 0.00 0.00 0.00 77 1015.0
20260831180907 78 39 2.0 8.0 0.00 0.00 0.00 76 1015.0
20260831180407 78 61 1.0 5.0 0.00 0.00 0.00 76 1015.1
20260831174905 79 132 2.0 7.0 0.00 0.00 0.00 76 1015.1
20260831174405 79 147 1.0 5.0 0.00 0.00 0.00 76 1015.1
20260831173905 79 149 3.0 7.0 0.00 0.00 0.00 76 1015.0
20260831173407 79 139 2.0 7.0 0.00 0.00 0.00 76 1015.1
20260831171905 80 149 3.0 8.0 0.00 0.00 0.00 75 1015.1
20260831170405 80 152 4.0 7.0 0.00 0.00 0.00 74 1015.2
20260831164910 81 150 3.0 7.0 0.00 0.00 0.00 73 1015.3
20260831164405 81 157 3.0 7.0 0.00 0.00 0.00 72 1015.3
20260831161905 82 159 3.0 6.0 0.00 0.00 0.00 71 1015.2
20260831161416 82 160 2.0 7.0 0.00 0.00 0.00 72 1015.3
20260831160905 82 171 2.0 7.0 0.00 0.00 0.00 71 1015.3
20260831154405 82 135 2.0 7.0 0.00 0.00 0.00 72 1015.3
20260831153404 83 128 3.0 8.0 0.00 0.00 0.00 72 1015.3
20260831151907 83 145 3.0 8.0 0.00 0.00 0.00 70 1015.4
20260831151405 83 158 3.0 8.0 0.00 0.00 0.00 69 1015.4
20260831150405 84 134 3.0 7.0 0.00 0.00 0.00 70 1015.5
20260831144905 84 197 2.0 3.0 0.00 0.00 0.00 70 1015.6
20260831143905 84 216 1.0 5.0 0.00 0.00 0.00 71 1015.8
20260831143404 84 169 1.0 3.0 0.00 0.00 0.00 69 1015.9
20260831141404 85 245 3.0 6.0 0.00 0.00 0.00 70 1015.9
20260831140905 85 174 1.0 3.0 0.00 0.00 0.00 68 1015.8
20260831140405 85 183 2.0 7.0 0.00 0.00 0.00 68 1015.9
20260831134905 84 212 2.0 5.0 0.00 0.00 0.00 71 1015.9
20260831134405 83 238 2.0 8.0 0.00 0.00 0.00 71 1015.9
20260831131905 84 239 3.0 6.0 0.00 0.00 0.00 70 1016.1
20260831131405 84 241 3.0 8.0 0.00 0.00 0.00 68 1016.0
20260831130906 85 153 1.0 3.0 0.00 0.00 0.00 67 1016.0
20260831130404 85 233 2.0 7.0 0.00 0.00 0.00 66 1016.1
20260831124905 85 217 1.0 6.0 0.00 0.00 0.00 67 1016.1
20260831124410 85 245 2.0 5.0 0.00 0.00 0.00 66 1016.1
20260831123905 85 215 1.0 3.0 0.00 0.00 0.00 68 1016.0
20260831123405 86 170 2.0 5.0 0.00 0.00 0.00 67 1016.0
20260831121904 84 126 1.0 8.0 0.00 0.00 0.00 68 1016.0
20260831121405 83 257 3.0 9.0 0.00 0.00 0.00 68 1016.1
20260831120905 84 241 2.0 6.0 0.00 0.00 0.00 67 1016.1
20260831114904 84 168 1.0 6.0 0.00 0.00 0.00 68 1016.3
20260831114404 84 246 3.0 7.0 0.00 0.00 0.00 66 1016.3
20260831113904 84 189 2.0 5.0 0.00 0.00 0.00 67 1016.4
20260831113404 84 230 2.0 7.0 0.00 0.00 0.00 69 1016.4
20260831111921 84 188 2.0 3.0 0.00 0.00 0.00 68 1016.5
20260831111405 84 179 1.0 9.0 0.00 0.00 0.00 70 1016.4
20260831110904 84 246 2.0 7.0 0.00 0.00 0.00 70 1016.5
20260831110404 84 243 3.0 8.0 0.00 0.00 0.00 70 1016.6
20260831104407 85 221 1.0 5.0 0.00 0.00 0.00 70 1016.6
20260831103904 84 145 1.0 3.0 0.00 0.00 0.00 70 1016.6
20260831103404 84 175 1.0 3.0 0.00 0.00 0.00 71 1016.6
20260831101904 85 198 1.0 5.0 0.00 0.00 0.00 69 1016.5
20260831101404 84 147 2.0 3.0 0.00 0.00 0.00 67 1016.5
20260831100404 84 196 1.0 6.0 0.00 0.00 0.00 68 1016.5
20260831094905 83 208 2.0 3.0 0.00 0.00 0.00 69 1016.5
20260831094406 83 91 1.0 6.0 0.00 0.00 0.00 68 1016.5
20260831093905 83 135 1.0 7.0 0.00 0.00 0.00 70 1016.4
20260831093422 83 161 1.0 3.0 0.00 0.00 0.00 69 1016.5
20260831091909 83 138 1.0 5.0 0.00 0.00 0.00 69 1016.5
20260831091408 82 169 2.0 3.0 0.00 0.00 0.00 69 1016.5
20260831090910 82 117 1.0 3.0 0.00 0.00 0.00 70 1016.5
20260831090410 83 195 1.0 3.0 0.00 0.00 0.00 71 1016.5
20260831084907 81 179 0.0 3.0 0.00 0.00 0.00 70 1016.5
20260831084407 81 243 1.0 3.0 0.00 0.00 0.00 69 1016.5
20260831081919 80 163 1.0 2.0 0.00 0.00 0.00 71 1016.5
20260831080907 79 191 0.0 2.0 0.00 0.00 0.00 70 1016.4
20260831080422 79 161 0.0 2.0 0.00 0.00 0.00 70 1016.5
20260831074407 81 169 1.0 2.0 0.00 0.00 0.00 68 1016.2
20260831073407 81 179 0.0 2.0 0.00 0.00 0.00 70 1016.1
20260831071907 79 174 1.0 2.0 0.00 0.00 0.00 73 1016.0
20260831064407 75 13 0.0 0.0 0.00 0.00 0.00 76 1015.8
20260831063907 75 13 0.0 0.0 0.00 0.00 0.00 76 1015.8
20260831063406 74 13 1.0 3.0 0.00 0.00 0.00 76 1015.8
20260831061406 74 7 2.0 3.0 0.00 0.00 0.00 79 1015.9
20260831060907 74 16 2.0 3.0 0.00 0.00 0.00 80 1015.8
20260831054906 73 39 1.0 2.0 0.00 0.00 0.00 82 1015.8
20260831053906 73 30 0.0 2.0 0.00 0.00 0.00 83 1015.7
20260831051908 72 30 1.0 2.0 0.00 0.00 0.00 84 1015.6
20260831051406 72 29 1.0 2.0 0.00 0.00 0.00 84 1015.6
20260831050906 72 27 1.0 3.0 0.00 0.00 0.00 84 1015.5
20260831050407 72 31 1.0 3.0 0.00 0.00 0.00 84 1015.5
20260831044906 72 38 1.0 3.0 0.00 0.00 0.00 85 1015.4
20260831043906 72 37 2.0 3.0 0.00 0.00 0.00 86 1015.5
20260831043406 72 12 2.0 3.0 0.00 0.00 0.00 86 1015.4
20260831041906 72 31 2.0 3.0 0.00 0.00 0.00 87 1015.3
20260831041406 72 5 1.0 3.0 0.00 0.00 0.00 87 1015.3
20260831040907 72 21 2.0 3.0 0.00 0.00 0.00 87 1015.3
20260831040406 72 23 1.0 3.0 0.00 0.00 0.00 87 1015.3
20260831034906 72 27 1.0 3.0 0.00 0.00 0.00 87 1015.3
20260831033906 73 21 2.0 3.0 0.00 0.00 0.00 87 1015.4
20260831033407 72 38 2.0 3.0 0.00 0.00 0.00 87 1015.4
20260831031406 73 30 1.0 3.0 0.00 0.00 0.00 87 1015.6
20260831030906 73 32 2.0 3.0 0.00 0.00 0.00 87 1015.6
20260831030406 73 36 2.0 3.0 0.00 0.00 0.00 87 1015.6
20260831024906 73 12 2.0 3.0 0.00 0.00 0.00 87 1015.6
20260831024406 73 14 2.0 3.0 0.00 0.00 0.00 87 1015.6
20260831023906 73 18 1.0 3.0 0.00 0.00 0.00 87 1015.5
20260831021906 73 29 2.0 3.0 0.00 0.00 0.00 87 1015.6
20260831021406 73 33 1.0 3.0 0.00 0.00 0.00 86 1015.6
20260831020906 73 33 2.0 3.0 0.00 0.00 0.00 86 1015.6
20260831020406 73 33 1.0 3.0 0.00 0.00 0.00 86 1015.6
20260831014906 73 33 1.0 3.0 0.00 0.00 0.00 86 1015.8
20260831013907 73 33 2.0 3.0 0.00 0.00 0.00 86 1015.8
20260831013414 73 34 1.0 3.0 0.00 0.00 0.00 86 1015.8
20260831011406 73 15 2.0 3.0 0.00 0.00 0.00 86 1015.8
20260831010906 73 8 2.0 3.0 0.00 0.00 0.00 86 1015.7
20260831010406 73 34 1.0 2.0 0.00 0.00 0.00 86 1015.8
20260831004907 73 28 1.0 3.0 0.00 0.00 0.00 86 1015.9
20260831004421 73 25 2.0 3.0 0.00 0.00 0.00 86 1015.9
20260831003907 73 30 1.0 3.0 0.00 0.00 0.00 86 1015.9
20260831003406 73 28 1.0 3.0 0.00 0.00 0.00 85 1015.9
20260831001906 73 31 2.0 3.0 0.00 0.00 0.00 86 1015.9
20260831001405 73 28 1.0 3.0 0.00 0.00 0.00 85 1015.9
20260831000907 73 24 1.0 3.0 0.00 0.00 0.00 85 1015.8
20260831000406 73 22 1.0 2.0 0.00 0.00 0.00 85 1015.9
20260830234905 73 33 1.0 2.0 0.00 0.00 0.00 85 1015.9
20260830234406 73 40 2.0 3.0 0.00 0.00 0.00 85 1015.8